Total_Precipitation_Accumulation
1.29 1.18 1.05 1.04 1.08 1.12 1.19 1.24 1.14 0.99 1.00 0.96 0.66 0.48 0.46 0.48 0.51 0.38 0.34 0.30 0.26 0.21 0.16 0.17 0.19 0.23 0.32 0.41 0.52 0.61 0.63 0.61 0.59 0.54 0.55 0.57 0.58 0.63
1.15 1.10 1.03 1.00 1.04 1.05 1.09 1.18 1.27 1.24 1.11 1.01 0.82 0.60 0.58 0.52 0.52 0.45 0.39 0.33 0.25 0.19 0.13 0.12 0.14 0.17 0.23 0.30 0.37 0.45 0.50 0.51 0.51 0.51 0.51 0.50 0.48 0.49
0.91 0.90 0.89 0.91 0.96 0.97 0.98 1.02 1.20 1.35 1.26 1.22 1.10 0.95 0.82 0.71 0.57 0.49 0.41 0.33 0.27 0.20 0.14 0.11 0.12 0.14 0.17 0.22 0.29 0.36 0.42 0.46 0.48 0.51 0.53 0.53 0.50 0.47
0.85 0.90 0.91 0.96 0.97 0.89 0.91 0.98 1.15 1.33 1.39 1.49 1.55 1.29 1.01 0.80 0.71 0.57 0.38 0.27 0.26 0.20 0.14 0.11 0.10 0.10 0.12 0.16 0.23 0.33 0.42 0.46 0.50 0.52 0.52 0.51 0.51 0.51
0.87 0.93 0.91 0.89 0.87 0.83 0.87 0.96 1.06 1.19 1.31 1.37 1.49 1.30 1.10 0.86 0.83 0.67 0.49 0.42 0.27 0.21 0.15 0.11 0.09 0.08 0.09 0.13 0.19 0.27 0.36 0.45 0.49 0.57 0.59 0.56 0.56 0.58
0.79 0.79 0.75 0.74 0.74 0.73 0.74 0.83 0.91 0.97 1.05 1.10 1.20 1.24 1.25 1.19 1.11 0.94 0.79 0.66 0.52 0.36 0.30 0.17 0.12 0.09 0.07 0.09 0.13 0.21 0.30 0.39 0.46 0.51 0.58 0.62 0.66 0.68
0.70 0.64 0.55 0.57 0.60 0.56 0.57 0.68 0.76 0.84 0.90 0.96 1.09 1.21 1.29 1.32 1.23 1.16 1.01 0.91 0.77 0.68 0.70 0.51 0.40 0.29 0.20 0.15 0.13 0.17 0.25 0.35 0.42 0.50 0.57 0.62 0.68 0.75
0.53 0.55 0.49 0.45 0.44 0.45 0.43 0.46 0.52 0.59 0.72 0.89 1.03 1.21 1.26 1.20 1.28 1.24 1.17 1.09 1.03 0.96 0.96 0.96 0.89 0.77 0.58 0.37 0.27 0.21 0.20 0.28 0.40 0.47 0.55 0.63 0.69 0.76
0.37 0.40 0.39 0.38 0.35 0.31 0.36 0.41 0.42 0.43 0.45 0.64 0.81 0.87 0.87 0.83 1.00 1.18 1.14 1.12 1.19 1.13 1.11 1.19 1.15 1.03 0.78 0.59 0.42 0.28 0.23 0.24 0.31 0.40 0.48 0.56 0.65 0.75
0.29 0.29 0.30 0.34 0.33 0.29 0.29 0.34 0.32 0.31 0.32 0.35 0.38 0.38 0.41 0.48 0.63 0.90 1.09 1.07 1.14 1.16 1.16 1.33 1.31 1.23 1.02 0.79 0.56 0.35 0.27 0.28 0.32 0.37 0.41 0.46 0.53 0.61
0.21 0.22 0.23 0.26 0.31 0.29 0.27 0.29 0.26 0.25 0.26 0.25 0.23 0.25 0.27 0.27 0.32 0.48 0.71 0.99 1.27 1.33 1.20 1.33 1.39 1.40 1.44 1.18 0.85 0.60 0.41 0.33 0.32 0.36 0.39 0.40 0.42 0.46
0.23 0.19 0.19 0.19 0.21 0.19 0.19 0.21 0.20 0.18 0.17 0.20 0.21 0.19 0.21 0.21 0.18 0.25 0.37 0.60 0.91 1.09 1.10 1.21 1.43 1.67 1.82 1.55 1.14 0.82 0.64 0.55 0.45 0.36 0.36 0.38 0.38 0.37
0.26 0.20 0.17 0.15 0.13 0.12 0.12 0.12 0.13 0.12 0.12 0.14 0.17 0.17 0.16 0.16 0.13 0.13 0.17 0.27 0.42 0.54 0.63 0.83 1.06 1.33 1.67 1.76 1.60 1.27 1.00 0.79 0.63 0.52 0.45 0.43 0.45 0.45
0.28 0.21 0.14 0.12 0.10 0.09 0.09 0.09 0.08 0.08 0.10 0.12 0.13 0.13 0.12 0.11 0.10 0.08 0.10 0.14 0.22 0.30 0.39 0.53 0.72 0.93 1.10 1.24 1.35 1.42 1.42 1.27 1.03 0.85 0.71 0.69 0.65 0.66
0.25 0.23 0.15 0.09 0.08 0.08 0.07 0.06 0.05 0.05 0.07 0.08 0.09 0.09 0.08 0.06 0.06 0.07 0.08 0.09 0.12 0.13 0.17 0.28 0.44 0.59 0.71 0.88 1.02 1.11 1.20 1.25 1.21 1.14 1.10 0.99 0.87 0.81
0.23 0.19 0.14 0.08 0.06 0.06 0.06 0.05 0.04 0.04 0.05 0.05 0.06 0.07 0.06 0.05 0.05 0.05 0.07 0.09 0.11 0.13 0.13 0.17 0.27 0.36 0.46 0.58 0.68 0.81 0.93 1.06 1.19 1.25 1.25 1.22 1.13 1.07
0.20 0.17 0.13 0.09 0.06 0.06 0.05 0.04 0.04 0.04 0.04 0.04 0.04 0.05 0.06 0.06 0.06 0.05 0.06 0.08 0.12 0.15 0.14 0.13 0.16 0.23 0.24 0.29 0.44 0.58 0.66 0.75 0.91 1.09 1.22 1.30 1.21 1.14
0.21 0.19 0.17 0.11 0.07 0.06 0.04 0.04 0.04 0.04 0.04 0.04 0.05 0.05 0.05 0.06 0.06 0.05 0.05 0.07 0.09 0.12 0.14 0.13 0.13 0.19 0.25 0.22 0.19 0.30 0.41 0.53 0.60 0.70 0.88 1.08 1.12 1.05
0.21 0.20 0.19 0.13 0.08 0.06 0.04 0.03 0.04 0.04 0.04 0.05 0.06 0.07 0.07 0.07 0.07 0.06 0.06 0.07 0.09 0.10 0.13 0.13 0.12 0.14 0.22 0.29 0.23 0.15 0.21 0.31 0.38 0.44 0.54 0.71 0.89 0.88
0.19 0.19 0.18 0.14 0.10 0.07 0.05 0.03 0.03 0.03 0.03 0.04 0.06 0.06 0.06 0.07 0.08 0.08 0.06 0.06 0.08 0.12 0.16 0.17 0.14 0.12 0.15 0.22 0.24 0.19 0.10 0.17 0.26 0.33 0.37 0.43 0.51 0.59
0.13 0.12 0.11 0.09 0.07 0.07 0.06 0.05 0.04 0.04 0.04 0.03 0.04 0.06 0.06 0.08 0.09 0.11 0.10 0.09 0.08 0.09 0.14 0.19 0.18 0.14 0.16 0.22 0.26 0.27 0.17 0.10 0.13 0.20 0.26 0.33 0.40 0.43
0.08 0.07 0.06 0.04 0.04 0.04 0.05 0.04 0.04 0.04 0.04 0.04 0.04 0.05 0.06 0.08 0.10 0.11 0.12 0.12 0.11 0.11 0.13 0.15 0.16 0.16 0.18 0.22 0.24 0.24 0.22 0.18 0.12 0.10 0.13 0.18 0.24 0.30
0.05 0.04 0.04 0.02 0.02 0.02 0.02 0.03 0.03 0.03 0.03 0.03 0.03 0.04 0.05 0.06 0.06 0.08 0.09 0.10 0.11 0.11 0.12 0.14 0.16 0.18 0.20 0.24 0.28 0.27 0.23 0.21 0.21 0.21 0.16 0.11 0.11 0.12